INFORMAÇÕES DO AERODROMO
Icao Aerodromo SBCH Nome do Aerodromo Chapecó Airport Cidade Chapecó
Código GPS SBCH Elevação Média 2146 ft Tipo de Aerodromo Aeroporto Médio Porte

INFORMAÇÃO DE PISTA
Pista 11 Comprimento da Pista 6768 ft Largura da Pista 148 ft
Elevação da Pista 0 ft Distância de Area de Escape da Pista 0 ft Orientação da Pista 0
Pista 29 Comprimento da Pista 6768 ft Largura da Pista 148 ft
Elevação da Pista 0 ft Distância de Area de Escape da Pista 0 ft Orientação da Pista 0

FREQUÊNCIAS DO AERODROMO
Tipo AFIS Nome RDO Frequência 130.85 MHZ

INFORMAÇÕES DE NAVEGAÇÃO PRÓXIMO AO AERODROMO
Tipo VOR-DME Nome Chapeco Frequência 116100 KHZ
Tipo NDB Nome Chapeco Frequência 173 KHZ

Informações de Meteorologia(METAR atual)
METAR DE SBCH
ADDS - METARS form results

(2143 UTC 25 November 2020)
Data provider http://aviationweather.gov/metar/data/
 
METAR text: SBCH 252100Z 02010G20KT 9999 SCT020 33/13 Q1011
Conditions at: SBCH (CHAPECO , BR) observed 2100 UTC 25 November 2020
Temperature: 33.0°C (91°F)
Dewpoint: 13.0°C (55°F) [RH = 30%]
Pressure (altimeter): 29.85 inches Hg (1011.0 mb)
Winds: from the NNE (20 degrees) at 12 MPH (10 knots; 5.1 m/s)
gusting to 23 MPH (20 knots; 10.3 m/s)
Visibility: 6 or more miles (10+ km)
Ceiling: at least 12,000 feet AGL
Clouds: scattered clouds at 2000 feet AGL
Weather: no significant weather observed at this time

MAPA DO AERODROMO


Desenvolvido por Virtual Airlines Manager




Modificado por Grupo Brasil Amigos